Location: LDNL
(36.4545°S, 141.6685°E)
Time: 10:59:51
(UTC+10:00)

Explorer 7 - Pass Details

Date: 19 August 2022
Orbit: 482 x 668 km, 50.3° (Epoch: 26 September)

Event Time Altitude Azimuth Distance (km) Brightness Sun altitude
Rises 19:37:37 0° 234° (SW) 3,018 11.4 -19.6°
Reaches altitude 10° 19:40:56 10° 211° (SSW) 2,084 10.1 -20.3°
Maximum altitude 19:43:48 15° 175° (S) 1,721 9.3 -20.9°
Enters shadow 19:44:38 15° 163° (SSE) 1,745 9.2 -21.0°
Drops below altitude 10° 19:46:36 10° 138° (SE) 2,029 - -21.4°
Sets 19:49:46 0° 115° (ESE) 2,894 - -22.1°
